Regional Weather Roundup
Issued by NWS

Home | Current Version | Previous Version | Text Only | Print | Product List | Glossary Off
Versions: 1 2 3 4 5 6 7 8 9 10 11 12 13 14 15 16 17 18 19 20 21 22 23 24 25 26 27 28 29 30 31 32 33 34 35 36 37 38 39 40 41 42 43 44 45 46 47 48 49 50

239
ASUS43 KBIS 191402
RWRND

NORTH DAKOTA REGIONAL WEATHER ROUNDUP
NATIONAL WEATHER SERVICE BISMARCK ND
900 AM CDT TUE SEP 19 2017

NOTE: "FAIR" INDICATES FEW OR NO CLOUDS BELOW 12,000 FEET WITH NO
SIGNIFICANT WEATHER AND/OR OBSTRUCTIONS TO VISIBILITY.


NDZ001>003-009>011-017-191500-
NORTHWEST NORTH DAKOTA

CITY           SKY/WX    TMP DP  RH WIND       PRES   REMARKS
WILLISTON      CLOUDY    58  51  78 VRB5      29.41F
MINOT          CLOUDY    59  57  93 SE24G36   29.48F
MINOT AFB      CLOUDY    58  57  98 SE26G32   29.45F FOG
$$

NDZ018>021-031>035-040>046-191500-
SOUTHWEST NORTH DAKOTA

CITY           SKY/WX    TMP DP  RH WIND       PRES   REMARKS
BISMARCK       CLOUDY    63  47  55 SE22G31   29.51F
DICKINSON      LGT RAIN  59  50  72 SW8       29.44S
GARRISON         N/A     61  59  93 SE13      29.48R
HETTINGER ARPT CLOUDY    60  44  55 SW9       29.52R
$$

NDZ004>008-012>016-024-026-027-054-191500-
NORTHEAST NORTH DAKOTA

CITY           SKY/WX    TMP DP  RH WIND       PRES   REMARKS
GRAND FORKS    FOG       60  60 100 SE16      29.72F VSB 1
GRND FRKS AFB  CLOUDY    59  59 100 SE14      29.72F FOG
DEVILS LAKE    CLOUDY    59  59 100 SE17G28   29.65F FOG
$$

NDZ022-023-025-028>030-036>039-047>053-191500-
SOUTHEAST NORTH DAKOTA

CITY           SKY/WX    TMP DP  RH WIND       PRES   REMARKS
FARGO          CLOUDY    62  62 100 SE15      29.74F FOG
$$





USA.gov is the U.S. government's official web portal to all federal, state and local government web resources and services.